,,Stat6,,Stat2,,Stat8,,Stat9,,Stat10,,Wind1,,Wind1,
time,status,PA1M_AVG,status,PR1M_SUM,status,RH1M_AVG,status,SR1M_AVG,status,TA1M_AVG,status,W1dAve1m,status,W1sAve1m,
2007-04-07, 00:00:00,VALID,917.755,VALID,0,VALID,96.0519,VALID,0,VALID,19.7085,VALID,127,VALID,2.03403,
2007-04-07, 00:01:00,VALID,917.728,VALID,0,VALID,95.7264,VALID,-0.0169808,VALID,19.731,VALID,119,VALID,1.19288,
2007-04-07, 00:02:00,VALID,917.722,VALID,0,VALID,95.8078,VALID,0,VALID,19.7178,VALID,127,VALID,1.30291,
2007-04-07, 00:03:00,VALID,917.702,VALID,0,VALID,96.2198,VALID,0,VALID,19.718,VALID,129,VALID,1.40709,
2007-04-07, 00:04:00,VALID,917.691,VALID,0,VALID,96.352,VALID,0,VALID,19.7275,VALID,129,VALID,1.3417,
2007-04-07, 00:05:00,VALID,917.692,VALID,0,VALID,96.4881,VALID,0,VALID,19.7345,VALID,133,VALID,1.36533,
2007-04-07, 00:06:00,VALID,917.667,VALID,0,VALID,96.6699,VALID,-0.0169808,VALID,19.734,VALID,150,VALID,1.60556,
2007-04-07, 00:07:00,VALID,917.664,VALID,0,VALID,96.5453,VALID,-0.0169808,VALID,19.7797,VALID,144,VALID,1.39418,
2007-04-07, 00:08:00,VALID,917.647,VALID,0,VALID,96.2617,VALID,-0.0169808,VALID,19.7996,VALID,130,VALID,1.0503,
2007-04-07, 00:09:00,VALID,917.627,VALID,0,VALID,96.1435,VALID,0,VALID,19.7897,VALID,126,VALID,0.983964,
2007-04-07, 00:10:00,VALID,917.604,VALID,0,VALID,96.0812,VALID,-0.0169808,VALID,19.7664,VALID,130,VALID,1.08054,
2007-04-07, 00:11:00,VALID,917.591,VALID,0,VALID,96.1384,VALID,-0.0169808,VALID,19.7502,VALID,111,VALID,1.29869,
2007-04-07, 00:12:00,VALID,917.568,VALID,0,VALID,95.9438,VALID,0,VALID,19.7729,VALID,112,VALID,1.58537,
2007-04-07, 00:13:00,VALID,917.544,VALID,0,VALID,95.7709,VALID,0,VALID,19.8281,VALID,117,VALID,1.57254,
2007-04-07, 00:14:00,VALID,917.54,VALID,0,VALID,95.4136,VALID,0,VALID,19.88,VALID,121,VALID,1.33775,
2007-04-07, 00:15:00,VALID,917.509,VALID,0,VALID,95.2915,VALID,0.0169808,VALID,19.896,VALID,129,VALID,1.40831,
2007-04-07, 00:16:00,VALID,917.483,VALID,0,VALID,95.1732,VALID,0,VALID,19.906,VALID,133,VALID,1.7555,
2007-04-07, 00:17:00,VALID,917.46,VALID,0,VALID,95.0537,VALID,-0.0339617,VALID,19.8995,VALID,132,VALID,1.38834,
2007-04-07, 00:18:00,VALID,917.453,VALID,0,VALID,95.0486,VALID,-0.0169808,VALID,19.8835,VALID,136,VALID,1.47336,
2007-04-07, 00:19:00,VALID,917.439,VALID,0,VALID,95.0168,VALID,0,VALID,19.893,VALID,130,VALID,1.73117,
2007-04-07, 00:20:00,VALID,917.425,VALID,0,VALID,94.7345,VALID,0,VALID,19.9389,VALID,130,VALID,1.25164,
2007-04-07, 00:21:00,VALID,917.415,VALID,0,VALID,94.4942,VALID,0,VALID,19.9641,VALID,130,VALID,1.73728,
2007-04-07, 00:22:00,VALID,917.4,VALID,0,VALID,94.1966,VALID,0.0169808,VALID,20.0195,VALID,124,VALID,1.83026,
2007-04-07, 00:23:00,VALID,917.387,VALID,0,VALID,93.8266,VALID,-0.0169808,VALID,20.0709,VALID,100,VALID,1.1633,
2007-04-07, 00:24:00,VALID,917.36,VALID,0,VALID,93.6422,VALID,-0.0169808,VALID,20.1069,VALID,127,VALID,1.39363,
2007-04-07, 00:25:00,VALID,917.347,VALID,0,VALID,93.5812,VALID,-0.0339617,VALID,20.1336,VALID,124,VALID,1.25457,
2007-04-07, 00:26:00,VALID,917.348,VALID,0,VALID,93.4375,VALID,-0.0679233,VALID,20.1563,VALID,110,VALID,1.28761,
2007-04-07, 00:27:00,VALID,917.326,VALID,0,VALID,93.4909,VALID,0.0169808,VALID,20.1166,VALID,121,VALID,1.35938,
2007-04-07, 00:28:00,VALID,917.31,VALID,0,VALID,93.7719,VALID,-0.0169808,VALID,20.0809,VALID,131,VALID,1.4723,
2007-04-07, 00:29:00,VALID,917.289,VALID,0,VALID,93.8826,VALID,-0.0169808,VALID,20.0782,VALID,129,VALID,1.36545,
2007-04-07, 00:30:00,VALID,917.277,VALID,0,VALID,93.9728,VALID,-0.0339617,VALID,20.0492,VALID,127,VALID,1.58899,
2007-04-07, 00:31:00,VALID,917.254,VALID,0,VALID,94.1928,VALID,0,VALID,20.0195,VALID,131,VALID,1.83017,
2007-04-07, 00:32:00,VALID,917.253,VALID,0,VALID,94.3391,VALID,0,VALID,19.9871,VALID,127,VALID,1.84738,
2007-04-07, 00:33:00,VALID,917.222,VALID,0,VALID,94.4103,VALID,-0.0169808,VALID,19.9936,VALID,124,VALID,1.93714,
2007-04-07, 00:34:00,VALID,917.211,VALID,0,VALID,94.1979,VALID,-0.0169808,VALID,20.0328,VALID,125,VALID,1.73562,
2007-04-07, 00:35:00,VALID,917.192,VALID,0,VALID,94.025,VALID,0,VALID,20.0587,VALID,116,VALID,1.75476,
2007-04-07, 00:36:00,VALID,917.192,VALID,0,VALID,93.9589,VALID,0,VALID,20.0677,VALID,112,VALID,1.68415,
2007-04-07, 00:37:00,VALID,917.188,VALID,0,VALID,93.7681,VALID,0,VALID,20.1004,VALID,123,VALID,1.59647,
2007-04-07, 00:38:00,VALID,917.19,VALID,0,VALID,93.6168,VALID,0,VALID,20.1001,VALID,113,VALID,1.17664,
2007-04-07, 00:39:00,VALID,917.184,VALID,0,VALID,93.7351,VALID,-0.0169808,VALID,20.0844,VALID,134,VALID,1.22019,
2007-04-07, 00:40:00,VALID,917.182,VALID,0,VALID,93.8813,VALID,-0.0169808,VALID,20.055,VALID,136,VALID,1.03125,
2007-04-07, 00:41:00,VALID,917.181,VALID,0,VALID,93.8508,VALID,0.0169808,VALID,20.0515,VALID,116,VALID,1.13929,
2007-04-07, 00:42:00,VALID,917.192,VALID,0,VALID,93.8457,VALID,-0.0169808,VALID,20.042,VALID,118,VALID,1.40473,
2007-04-07, 00:43:00,VALID,917.195,VALID,0,VALID,93.7923,VALID,0,VALID,20.0784,VALID,124,VALID,1.31595,
2007-04-07, 00:44:00,VALID,917.193,VALID,0,VALID,93.6651,VALID,0,VALID,20.1004,VALID,130,VALID,1.44866,
2007-04-07, 00:45:00,VALID,917.17,VALID,0,VALID,93.4744,VALID,0.0169808,VALID,20.1166,VALID,128,VALID,1.27083,
2007-04-07, 00:46:00,VALID,917.164,VALID,0,VALID,93.3803,VALID,0,VALID,20.1366,VALID,135,VALID,1.23819,
2007-04-07, 00:47:00,VALID,917.143,VALID,0,VALID,93.3994,VALID,0,VALID,20.1204,VALID,141,VALID,1.45941,
2007-04-07, 00:48:00,VALID,917.13,VALID,0,VALID,93.4566,VALID,-0.0169808,VALID,20.1136,VALID,140,VALID,1.21742,
2007-04-07, 00:49:00,VALID,917.112,VALID,0,VALID,93.421,VALID,-0.0169808,VALID,20.1333,VALID,127,VALID,1.09766,
2007-04-07, 00:50:00,VALID,917.104,VALID,0,VALID,93.4833,VALID,0,VALID,20.1201,VALID,139,VALID,1.47317,
2007-04-07, 00:51:00,VALID,917.08,VALID,0,VALID,93.5736,VALID,-0.0169808,VALID,20.1011,VALID,131,VALID,1.01283,
2007-04-07, 00:52:00,VALID,917.071,VALID,0,VALID,93.7796,VALID,-0.0339617,VALID,20.0622,VALID,130,VALID,1.29402,
2007-04-07, 00:53:00,VALID,917.063,VALID,0,VALID,93.9894,VALID,0,VALID,20.003,VALID,115,VALID,1.15698,
2007-04-07, 00:54:00,VALID,917.046,VALID,0,VALID,94.2577,VALID,0.0169808,VALID,19.9382,VALID,128,VALID,1.24023,
2007-04-07, 00:55:00,VALID,917.037,VALID,0,VALID,94.5336,VALID,0,VALID,19.886,VALID,132,VALID,1.89118,
2007-04-07, 00:56:00,VALID,917.033,VALID,0,VALID,94.5387,VALID,-0.0169808,VALID,19.8965,VALID,117,VALID,1.5307,
2007-04-07, 00:57:00,VALID,917.042,VALID,0,VALID,94.4675,VALID,0,VALID,19.89,VALID,132,VALID,1.54632,
2007-04-07, 00:58:00,VALID,917.031,VALID,0,VALID,94.4828,VALID,0,VALID,19.8865,VALID,129,VALID,1.70259,
2007-04-07, 00:59:00,VALID,917.042,VALID,0,VALID,94.3327,VALID,0,VALID,19.893,VALID,121,VALID,1.18022,
2007-04-07, 01:00:00,VALID,917.018,VALID,0,VALID,94.4065,VALID,-0.0169808,VALID,19.8927,VALID,146,VALID,1.33251,
2007-04-07, 01:01:00,VALID,917.004,VALID,0,VALID,94.2475,VALID,-0.0169808,VALID,19.9062,VALID,154,VALID,1.35174,
2007-04-07, 01:02:00,VALID,916.992,VALID,0,VALID,94.072,VALID,0,VALID,19.9284,VALID,161,VALID,1.24709,
2007-04-07, 01:03:00,VALID,916.991,VALID,0,VALID,93.8711,VALID,0,VALID,19.9479,VALID,156,VALID,0.970982,
2007-04-07, 01:04:00,VALID,916.964,VALID,0,VALID,93.9207,VALID,-0.0169808,VALID,19.9584,VALID,140,VALID,1.40116,
2007-04-07, 01:05:00,VALID,916.969,VALID,0,VALID,93.8584,VALID,0,VALID,19.9574,VALID,139,VALID,1.20724,
2007-04-07, 01:06:00,VALID,916.975,VALID,0,VALID,93.8699,VALID,0.0339617,VALID,19.9576,VALID,150,VALID,1.27689,
2007-04-07, 01:07:00,VALID,916.974,VALID,0,VALID,93.8826,VALID,0.0169808,VALID,19.9446,VALID,141,VALID,1.08556,
2007-04-07, 01:08:00,VALID,916.987,VALID,0,VALID,93.9194,VALID,0,VALID,19.9379,VALID,150,VALID,1.30448,
2007-04-07, 01:09:00,VALID,916.992,VALID,0,VALID,93.7503,VALID,0.0169808,VALID,19.9674,VALID,138,VALID,1.49276,
2007-04-07, 01:10:00,VALID,917,VALID,0,VALID,93.6219,VALID,0,VALID,19.9738,VALID,142,VALID,1.6577,
2007-04-07, 01:11:00,VALID,916.981,VALID,0,VALID,93.6079,VALID,-0.0169808,VALID,19.9773,VALID,132,VALID,1.71336,
2007-04-07, 01:12:00,VALID,916.975,VALID,0,VALID,93.5977,VALID,0,VALID,19.9644,VALID,141,VALID,1.63132,
2007-04-07, 01:13:00,VALID,916.932,VALID,0,VALID,93.6232,VALID,0,VALID,19.9609,VALID,144,VALID,1.56305,
2007-04-07, 01:14:00,VALID,916.925,VALID,0,VALID,93.5939,VALID,-0.0339617,VALID,19.9579,VALID,135,VALID,1.5502,
2007-04-07, 01:15:00,VALID,916.903,VALID,0,VALID,93.7249,VALID,-0.0169808,VALID,19.9519,VALID,157,VALID,1.54706,
2007-04-07, 01:16:00,VALID,916.888,VALID,0,VALID,93.9398,VALID,-0.0339617,VALID,19.9264,VALID,141,VALID,1.22384,
2007-04-07, 01:17:00,VALID,916.879,VALID,0,VALID,94.1916,VALID,-0.0509425,VALID,19.8675,VALID,139,VALID,1.57715,
2007-04-07, 01:18:00,VALID,916.867,VALID,0,VALID,94.4217,VALID,-0.0339617,VALID,19.8453,VALID,136,VALID,1.9678,
2007-04-07, 01:19:00,VALID,916.855,VALID,0,VALID,94.3264,VALID,-0.0679233,VALID,19.8323,VALID,130,VALID,1.49473,
2007-04-07, 01:20:00,VALID,916.849,VALID,0,VALID,94.4675,VALID,-0.0339617,VALID,19.8061,VALID,131,VALID,2.42769,
2007-04-07, 01:21:00,VALID,916.829,VALID,0,VALID,94.4179,VALID,-0.0169808,VALID,19.8159,VALID,138,VALID,1.88774,
2007-04-07, 01:22:00,VALID,916.825,VALID,0,VALID,94.4522,VALID,-0.0339617,VALID,19.8226,VALID,137,VALID,2.05233,
2007-04-07, 01:23:00,VALID,916.817,VALID,0,VALID,94.4039,VALID,-0.0169808,VALID,19.8159,VALID,147,VALID,1.95292,
2007-04-07, 01:24:00,VALID,916.795,VALID,0,VALID,94.5095,VALID,-0.0169808,VALID,19.7959,VALID,145,VALID,2.0332,
2007-04-07, 01:25:00,VALID,916.768,VALID,0,VALID,94.6799,VALID,-0.0509425,VALID,19.7674,VALID,144,VALID,1.8582,
2007-04-07, 01:26:00,VALID,916.733,VALID,0,VALID,94.8274,VALID,-0.0849042,VALID,19.735,VALID,134,VALID,1.82999,
2007-04-07, 01:27:00,VALID,916.708,VALID,0,VALID,95.0207,VALID,-0.0679233,VALID,19.6961,VALID,134,VALID,2.18405,
2007-04-07, 01:28:00,VALID,916.695,VALID,0,VALID,95.1389,VALID,-0.0339617,VALID,19.6664,VALID,132,VALID,2.19638,
2007-04-07, 01:29:00,VALID,916.669,VALID,0,VALID,95.1656,VALID,0.0339617,VALID,19.6457,VALID,123,VALID,1.70046,
2007-04-07, 01:30:00,VALID,916.646,VALID,0,VALID,95.144,VALID,0.0339617,VALID,19.6454,VALID,138,VALID,1.90412,
2007-04-07, 01:31:00,VALID,916.62,VALID,0,VALID,95.0308,VALID,0.0849042,VALID,19.6716,VALID,132,VALID,1.93241,
2007-04-07, 01:32:00,VALID,916.607,VALID,0,VALID,94.9876,VALID,0.0509425,VALID,19.6751,VALID,140,VALID,1.6356,
2007-04-07, 01:33:00,VALID,916.603,VALID,0,VALID,94.9876,VALID,0.0509425,VALID,19.6452,VALID,126,VALID,0.897693,
2007-04-07, 01:34:00,VALID,916.609,VALID,0,VALID,95.0715,VALID,0.0679233,VALID,19.6199,VALID,103,VALID,0.97793,
2007-04-07, 01:35:00,VALID,916.589,VALID,0,VALID,95.2381,VALID,0,VALID,19.5613,VALID,84,VALID,0.691692,
2007-04-07, 01:36:00,VALID,916.584,VALID,0,VALID,95.4009,VALID,0.0509425,VALID,19.5094,VALID,110,VALID,1.06641,
2007-04-07, 01:37:00,VALID,916.553,VALID,0,VALID,95.7327,VALID,0.0679233,VALID,19.451,VALID,130,VALID,1.77035,
2007-04-07, 01:38:00,VALID,916.543,VALID,0,VALID,96.0481,VALID,0.0339617,VALID,19.4123,VALID,143,VALID,1.63281,
2007-04-07, 01:39:00,VALID,916.53,VALID,0,VALID,96.1536,VALID,0.0169808,VALID,19.3766,VALID,140,VALID,1.4697,
2007-04-07, 01:40:00,VALID,916.509,VALID,0,VALID,96.2528,VALID,0.0509425,VALID,19.3504,VALID,136,VALID,1.61204,
2007-04-07, 01:41:00,VALID,916.504,VALID,0,VALID,96.2567,VALID,0.0339617,VALID,19.3507,VALID,152,VALID,1.30618,
2007-04-07, 01:42:00,VALID,916.511,VALID,0,VALID,96.1257,VALID,0.0509425,VALID,19.34,VALID,133,VALID,1.42797,
2007-04-07, 01:43:00,VALID,916.493,VALID,0,VALID,96.1358,VALID,0.0509425,VALID,19.3275,VALID,138,VALID,1.91953,
2007-04-07, 01:44:00,VALID,916.491,VALID,0,VALID,96.1842,VALID,0,VALID,19.3487,VALID,137,VALID,1.97389,
2007-04-07, 01:45:00,VALID,916.493,VALID,0,VALID,96.071,VALID,-0.0169808,VALID,19.3644,VALID,137,VALID,1.76502,
2007-04-07, 01:46:00,VALID,916.479,VALID,0,VALID,95.8688,VALID,-0.0169808,VALID,19.3976,VALID,130,VALID,1.15792,
2007-04-07, 01:47:00,VALID,916.46,VALID,0,VALID,95.8803,VALID,-0.0339617,VALID,19.4041,VALID,144,VALID,2.13626,
2007-04-07, 01:48:00,VALID,916.447,VALID,0,VALID,95.8497,VALID,-0.0339617,VALID,19.3968,VALID,150,VALID,1.90682,
2007-04-07, 01:49:00,VALID,916.435,VALID,0,VALID,95.8536,VALID,-0.0169808,VALID,19.3971,VALID,155,VALID,2.00881,
2007-04-07, 01:50:00,VALID,916.434,VALID,0,VALID,95.9133,VALID,-0.0169808,VALID,19.3841,VALID,142,VALID,2.02121,
2007-04-07, 01:51:00,VALID,916.418,VALID,0,VALID,95.8269,VALID,-0.0679233,VALID,19.3903,VALID,140,VALID,1.68623,
2007-04-07, 01:52:00,VALID,916.431,VALID,0,VALID,95.8319,VALID,-0.0679233,VALID,19.4041,VALID,136,VALID,1.60955,
2007-04-07, 01:53:00,VALID,916.434,VALID,0,VALID,95.6692,VALID,-0.0849042,VALID,19.423,VALID,137,VALID,1.60014,
2007-04-07, 01:54:00,VALID,916.444,VALID,0,VALID,95.6323,VALID,-0.0849042,VALID,19.4235,VALID,138,VALID,1.4316,
2007-04-07, 01:55:00,VALID,916.443,VALID,0,VALID,95.7086,VALID,-0.0679233,VALID,19.4038,VALID,143,VALID,1.58557,
2007-04-07, 01:56:00,VALID,916.44,VALID,0,VALID,95.7404,VALID,-0.0509425,VALID,19.3876,VALID,148,VALID,1.32867,
2007-04-07, 01:57:00,VALID,916.406,VALID,0,VALID,95.7671,VALID,-0.0509425,VALID,19.3843,VALID,139,VALID,2.14118,
2007-04-07, 01:58:00,VALID,916.402,VALID,0,VALID,95.6793,VALID,-0.0509425,VALID,19.3908,VALID,143,VALID,1.52653,
2007-04-07, 01:59:00,VALID,916.381,VALID,0,VALID,95.6145,VALID,-0.0679233,VALID,19.3943,VALID,134,VALID,1.66661,
2007-04-07, 02:00:00,VALID,916.363,VALID,0,VALID,95.5636,VALID,-0.0849042,VALID,19.3876,VALID,136,VALID,2.11602,
2007-04-07, 02:01:00,VALID,916.35,VALID,0,VALID,95.4148,VALID,-0.0679233,VALID,19.4073,VALID,131,VALID,2.31094,
2007-04-07, 02:02:00,VALID,916.341,VALID,0,VALID,95.2826,VALID,-0.0679233,VALID,19.4203,VALID,131,VALID,2.05176,
2007-04-07, 02:03:00,VALID,916.333,VALID,0,VALID,95.2038,VALID,-0.0679233,VALID,19.4128,VALID,144,VALID,1.90513,
2007-04-07, 02:04:00,VALID,916.325,VALID,0,VALID,95.144,VALID,-0.0339617,VALID,19.436,VALID,132,VALID,1.78457,
2007-04-07, 02:05:00,VALID,916.317,VALID,0,VALID,94.9711,VALID,-0.0509425,VALID,19.4657,VALID,135,VALID,2.26579,
2007-04-07, 02:06:00,VALID,916.314,VALID,0,VALID,94.676,VALID,-0.0509425,VALID,19.5014,VALID,132,VALID,2.32617,
2007-04-07, 02:07:00,VALID,916.314,VALID,0,VALID,94.5463,VALID,-0.118866,VALID,19.5109,VALID,135,VALID,2.06152,
2007-04-07, 02:08:00,VALID,916.293,VALID,0,VALID,94.5591,VALID,-0.0509425,VALID,19.4977,VALID,137,VALID,1.95554,
2007-04-07, 02:09:00,VALID,916.297,VALID,0,VALID,94.5718,VALID,-0.0849042,VALID,19.4852,VALID,138,VALID,1.71075,
2007-04-07, 02:10:00,VALID,916.299,VALID,0,VALID,94.5896,VALID,-0.0679233,VALID,19.4655,VALID,143,VALID,2.0875,
2007-04-07, 02:11:00,VALID,916.312,VALID,0,VALID,94.4904,VALID,-0.0509425,VALID,19.4715,VALID,139,VALID,1.98512,
2007-04-07, 02:12:00,VALID,916.327,VALID,0,VALID,94.479,VALID,-0.0849042,VALID,19.4752,VALID,134,VALID,2.13121,
2007-04-07, 02:13:00,VALID,916.321,VALID,0,VALID,94.4433,VALID,-0.0679233,VALID,19.4717,VALID,141,VALID,2.72856,
2007-04-07, 02:14:00,VALID,916.341,VALID,0,VALID,94.2272,VALID,-0.101885,VALID,19.5014,VALID,148,VALID,2.59288,
2007-04-07, 02:15:00,VALID,916.332,VALID,0,VALID,94.0911,VALID,-0.118866,VALID,19.5211,VALID,147,VALID,2.28299,
2007-04-07, 02:16:00,VALID,916.303,VALID,0,VALID,94.0263,VALID,-0.0849042,VALID,19.5341,VALID,143,VALID,1.9349,
2007-04-07, 02:17:00,VALID,916.32,VALID,0,VALID,94.0568,VALID,-0.118866,VALID,19.5243,VALID,142,VALID,1.85795,
2007-04-07, 02:18:00,VALID,916.313,VALID,0,VALID,94.1191,VALID,-0.101885,VALID,19.5186,VALID,146,VALID,2.03739,
2007-04-07, 02:19:00,VALID,916.296,VALID,0,VALID,94.0479,VALID,-0.135847,VALID,19.5316,VALID,148,VALID,2.19844,
2007-04-07, 02:20:00,VALID,916.296,VALID,0,VALID,93.8355,VALID,-0.101885,VALID,19.5633,VALID,140,VALID,2.33424,
2007-04-07, 02:21:00,VALID,916.296,VALID,0,VALID,93.7351,VALID,-0.101885,VALID,19.5927,VALID,133,VALID,2.0026,
2007-04-07, 02:22:00,VALID,916.297,VALID,0,VALID,93.5863,VALID,-0.118866,VALID,19.606,VALID,136,VALID,2.31362,
2007-04-07, 02:23:00,VALID,916.302,VALID,0,VALID,93.2315,VALID,-0.118866,VALID,19.6314,VALID,141,VALID,2.41704,
2007-04-07, 02:24:00,VALID,916.311,VALID,0,VALID,93.0344,VALID,-0.101885,VALID,19.6803,VALID,135,VALID,2.56795,
2007-04-07, 02:25:00,VALID,916.318,VALID,0,VALID,92.9339,VALID,-0.118866,VALID,19.6966,VALID,140,VALID,2.71503,
2007-04-07, 02:26:00,VALID,916.328,VALID,0,VALID,92.8309,VALID,-0.135847,VALID,19.703,VALID,135,VALID,2.20675,
2007-04-07, 02:27:00,VALID,916.322,VALID,0,VALID,93.0649,VALID,-0.135847,VALID,19.6808,VALID,135,VALID,2.12109,
2007-04-07, 02:28:00,VALID,916.32,VALID,0,VALID,93.3676,VALID,-0.118866,VALID,19.6277,VALID,128,VALID,2.27762,
2007-04-07, 02:29:00,VALID,916.31,VALID,0,VALID,93.4566,VALID,0,VALID,19.598,VALID,139,VALID,2.16134,
2007-04-07, 02:30:00,VALID,916.305,VALID,0,VALID,93.585,VALID,-0.0339617,VALID,19.5917,VALID,138,VALID,2.61923,
2007-04-07, 02:31:00,VALID,916.291,VALID,0,VALID,93.6689,VALID,-0.0169808,VALID,19.6112,VALID,140,VALID,2.43768,
2007-04-07, 02:32:00,VALID,916.298,VALID,0,VALID,93.6117,VALID,-0.0679233,VALID,19.6404,VALID,141,VALID,2.37251,
2007-04-07, 02:33:00,VALID,916.305,VALID,0,VALID,93.4184,VALID,-0.0339617,VALID,19.6664,VALID,144,VALID,2.53229,
2007-04-07, 02:34:00,VALID,916.311,VALID,0,VALID,93.2226,VALID,-0.0339617,VALID,19.6851,VALID,144,VALID,1.94085,
2007-04-07, 02:35:00,VALID,916.321,VALID,0,VALID,93.1221,VALID,-0.0509425,VALID,19.7285,VALID,147,VALID,2.04821,
2007-04-07, 02:36:00,VALID,916.33,VALID,0,VALID,93.0128,VALID,-0.0169808,VALID,19.7278,VALID,148,VALID,1.77493,
2007-04-07, 02:37:00,VALID,916.328,VALID,0,VALID,92.7089,VALID,0,VALID,19.7505,VALID,134,VALID,2.25527,
2007-04-07, 02:38:00,VALID,916.346,VALID,0,VALID,92.4825,VALID,0.0169808,VALID,19.7921,VALID,135,VALID,2.22696,
2007-04-07, 02:39:00,VALID,916.34,VALID,0,VALID,92.2676,VALID,0,VALID,19.8186,VALID,145,VALID,1.98531,
2007-04-07, 02:40:00,VALID,916.344,VALID,0,VALID,92.0604,VALID,0,VALID,19.8258,VALID,141,VALID,1.99639,
2007-04-07, 02:41:00,VALID,916.344,VALID,0,VALID,91.7781,VALID,-0.0509425,VALID,19.8513,VALID,142,VALID,2.00581,
2007-04-07, 02:42:00,VALID,916.333,VALID,0,VALID,91.4907,VALID,0,VALID,19.8962,VALID,143,VALID,2.64971,
2007-04-07, 02:43:00,VALID,916.333,VALID,0,VALID,91.1944,VALID,-0.0509425,VALID,19.9289,VALID,141,VALID,2.19379,
2007-04-07, 02:44:00,VALID,916.348,VALID,0,VALID,91.1829,VALID,-0.135847,VALID,19.9534,VALID,138,VALID,2.14435,
2007-04-07, 02:45:00,VALID,916.341,VALID,0,VALID,91.2783,VALID,-0.118866,VALID,19.9239,VALID,144,VALID,1.97383,
2007-04-07, 02:46:00,VALID,916.338,VALID,0,VALID,91.3699,VALID,-0.135847,VALID,19.8945,VALID,141,VALID,1.95543,
2007-04-07, 02:47:00,VALID,916.337,VALID,0,VALID,91.4602,VALID,-0.118866,VALID,19.875,VALID,145,VALID,1.60714,
2007-04-07, 02:48:00,VALID,916.332,VALID,0,VALID,91.5263,VALID,-0.118866,VALID,19.8625,VALID,144,VALID,2.19646,
2007-04-07, 02:49:00,VALID,916.319,VALID,0,VALID,91.5187,VALID,-0.101885,VALID,19.8528,VALID,142,VALID,1.81504,
2007-04-07, 02:50:00,VALID,916.319,VALID,0,VALID,91.6,VALID,-0.118866,VALID,19.8204,VALID,149,VALID,1.92374,
2007-04-07, 02:51:00,VALID,916.317,VALID,0,VALID,91.5275,VALID,-0.152827,VALID,19.8076,VALID,152,VALID,1.92787,
2007-04-07, 02:52:00,VALID,916.313,VALID,0,VALID,91.5021,VALID,-0.169808,VALID,19.8176,VALID,153,VALID,2.01563,
2007-04-07, 02:53:00,VALID,916.331,VALID,0,VALID,91.5059,VALID,-0.152827,VALID,19.8109,VALID,148,VALID,1.90716,
2007-04-07, 02:54:00,VALID,916.344,VALID,0,VALID,91.5797,VALID,-0.118866,VALID,19.8044,VALID,154,VALID,1.68783,
2007-04-07, 02:55:00,VALID,916.352,VALID,0,VALID,91.7068,VALID,-0.152827,VALID,19.7812,VALID,154,VALID,1.94792,
2007-04-07, 02:56:00,VALID,916.364,VALID,0,VALID,91.8493,VALID,-0.135847,VALID,19.7687,VALID,157,VALID,1.63517,
2007-04-07, 02:57:00,VALID,916.362,VALID,0,VALID,91.9942,VALID,-0.152827,VALID,19.7522,VALID,161,VALID,1.91654,
2007-04-07, 02:58:00,VALID,916.351,VALID,0,VALID,92.1506,VALID,-0.101885,VALID,19.7223,VALID,160,VALID,1.75279,
2007-04-07, 02:59:00,VALID,916.345,VALID,0,VALID,92.3732,VALID,-0.0679233,VALID,19.7025,VALID,160,VALID,1.92152,
2007-04-07, 03:00:00,VALID,916.337,VALID,0,VALID,92.5067,VALID,-0.0339617,VALID,19.6863,VALID,158,VALID,1.81232,
2007-04-07, 03:01:00,VALID,916.321,VALID,0,VALID,92.6809,VALID,0,VALID,19.6791,VALID,150,VALID,1.9112,
2007-04-07, 03:02:00,VALID,916.312,VALID,0,VALID,92.8233,VALID,-0.0339617,VALID,19.6631,VALID,143,VALID,1.61849,
2007-04-07, 03:03:00,VALID,916.31,VALID,0,VALID,92.9632,VALID,-0.0339617,VALID,19.6339,VALID,141,VALID,1.64898,
2007-04-07, 03:04:00,VALID,916.305,VALID,0,VALID,93.0408,VALID,-0.0679233,VALID,19.6075,VALID,136,VALID,1.73692,
2007-04-07, 03:05:00,VALID,916.307,VALID,0,VALID,93.0827,VALID,-0.0509425,VALID,19.589,VALID,138,VALID,1.8447,
2007-04-07, 03:06:00,VALID,916.326,VALID,0,VALID,93.2086,VALID,-0.0509425,VALID,19.5625,VALID,134,VALID,1.86265,
2007-04-07, 03:07:00,VALID,916.336,VALID,0,VALID,93.3688,VALID,-0.0509425,VALID,19.5466,VALID,136,VALID,1.76693,
2007-04-07, 03:08:00,VALID,916.331,VALID,0,VALID,93.4222,VALID,-0.0509425,VALID,19.5468,VALID,151,VALID,1.76104,
2007-04-07, 03:09:00,VALID,916.332,VALID,0,VALID,93.4108,VALID,-0.0339617,VALID,19.5695,VALID,143,VALID,1.82392,
2007-04-07, 03:10:00,VALID,916.344,VALID,0,VALID,93.3243,VALID,-0.0679233,VALID,19.6052,VALID,139,VALID,1.74564,
2007-04-07, 03:11:00,VALID,916.333,VALID,0,VALID,93.2468,VALID,-0.0509425,VALID,19.6145,VALID,132,VALID,1.70713,
2007-04-07, 03:12:00,VALID,916.342,VALID,0,VALID,93.332,VALID,-0.0849042,VALID,19.5955,VALID,131,VALID,1.27798,
2007-04-07, 03:13:00,VALID,916.35,VALID,0,VALID,93.538,VALID,-0.0169808,VALID,19.5563,VALID,138,VALID,1.50156,
2007-04-07, 03:14:00,VALID,916.356,VALID,0,VALID,93.6626,VALID,0,VALID,19.5139,VALID,140,VALID,1.53561,
2007-04-07, 03:15:00,VALID,916.372,VALID,0,VALID,93.9309,VALID,0.0169808,VALID,19.468,VALID,136,VALID,1.95065,
2007-04-07, 03:16:00,VALID,916.357,VALID,0,VALID,94.1254,VALID,0.0169808,VALID,19.4425,VALID,148,VALID,1.52176,
2007-04-07, 03:17:00,VALID,916.349,VALID,0,VALID,94.2602,VALID,0,VALID,19.3933,VALID,154,VALID,1.2952,
2007-04-07, 03:18:00,VALID,916.352,VALID,0,VALID,94.5209,VALID,-0.0169808,VALID,19.3484,VALID,136,VALID,1.54759,
2007-04-07, 03:19:00,VALID,916.342,VALID,0,VALID,94.9545,VALID,-0.0169808,VALID,19.293,VALID,138,VALID,1.98547,
2007-04-07, 03:20:00,VALID,916.329,VALID,0,VALID,95.2317,VALID,0,VALID,19.277,VALID,142,VALID,1.49055,
2007-04-07, 03:21:00,VALID,916.319,VALID,0,VALID,95.5166,VALID,-0.0509425,VALID,19.2643,VALID,137,VALID,1.50298,
2007-04-07, 03:22:00,VALID,916.306,VALID,0,VALID,95.7035,VALID,0,VALID,19.2481,VALID,143,VALID,1.67645,
2007-04-07, 03:23:00,VALID,916.282,VALID,0,VALID,95.8485,VALID,-0.0339617,VALID,19.2479,VALID,145,VALID,1.82011,
2007-04-07, 03:24:00,VALID,916.266,VALID,0,VALID,95.8421,VALID,-0.0339617,VALID,19.2641,VALID,147,VALID,1.42854,
2007-04-07, 03:25:00,VALID,916.245,VALID,0,VALID,95.7442,VALID,-0.0169808,VALID,19.2696,VALID,145,VALID,1.65807,
2007-04-07, 03:26:00,VALID,916.233,VALID,0,VALID,95.5891,VALID,0.0169808,VALID,19.2963,VALID,145,VALID,1.34539,
2007-04-07, 03:27:00,VALID,916.202,VALID,0,VALID,95.7035,VALID,0,VALID,19.2631,VALID,145,VALID,1.64219,
2007-04-07, 03:28:00,VALID,916.182,VALID,0,VALID,95.6743,VALID,0,VALID,19.2736,VALID,132,VALID,1.43413,
2007-04-07, 03:29:00,VALID,916.166,VALID,0,VALID,95.8332,VALID,0,VALID,19.2606,VALID,137,VALID,1.73723,
2007-04-07, 03:30:00,VALID,916.155,VALID,0,VALID,95.809,VALID,0.0169808,VALID,19.2671,VALID,140,VALID,1.85404,
2007-04-07, 03:31:00,VALID,916.158,VALID,0,VALID,95.7887,VALID,-0.0169808,VALID,19.2701,VALID,135,VALID,1.71261,
2007-04-07, 03:32:00,VALID,916.151,VALID,0,VALID,95.7327,VALID,0,VALID,19.2571,VALID,114,VALID,1.3452,
2007-04-07, 03:33:00,VALID,916.161,VALID,0,VALID,95.8561,VALID,-0.0339617,VALID,19.2214,VALID,128,VALID,1.36528,